Volver al catálogo

STARLINK-11102

ActivoComunicacionesVLEO
NORAD 60065·PAYLOAD·🇺🇸 United States

Lanzado Jun 19, 2024 desde Vandenberg Space Force Base

Loading…

Próximos Pases (próximas 24 horas)

TLE

ActualizadoSource: CelesTrak SupGP

Época: Sep 14, 2026, 21:39 UTC

1 60065C 24113G   26257.90256944 -.00079662  00000+0 -65584-3 0  2578
2 60065  53.1566 338.2507 0001131  68.8912 235.5860 15.69762238    12

Sigue STARLINK-11102 en tiempo real con AllMySat

Download on the App Store